W1JCN Weather Reports


Display with metric or nautical units.
time (UTC)temp
F
wind
direction
speed
MPH
gust
MPH
rain 1hr
in
rain 24hr
in
rain mn
in
humidity
%
barometer
mb
20260904025318 64 0 0.0 0.0 0.00 0.02 0.02 93 1011.0
20260904024418 64 0 0.0 0.0 0.00 0.02 0.02 93 1011.1
20260904023518 64 0 0.0 0.0 0.00 0.02 0.02 93 1011.1
20260904022617 65 0 0.0 0.0 0.00 0.02 0.02 93 1010.9
20260904020817 65 0 0.0 0.0 0.00 0.02 0.02 93 1011.0
20260904015918 65 0 0.0 0.0 0.00 0.02 0.02 93 1011.1
20260904015017 65 0 0.0 0.0 0.00 0.02 0.02 93 1011.0
20260904014117 65 0 0.0 0.0 0.00 0.02 0.02 93 1011.1
20260904013218 66 0 0.0 0.0 0.00 0.02 0.02 93 1011.2
20260904012317 66 0 0.0 0.0 0.00 0.02 0.02 93 1011.2
20260904005617 66 0 0.0 0.0 0.00 0.02 0.02 93 1011.1
20260904004717 66 0 0.0 0.0 0.00 0.02 0.02 92 1011.0
20260904003817 66 0 0.0 0.0 0.00 0.02 0.02 92 1011.0
20260904002917 67 0 0.0 0.0 0.00 0.02 0.02 92 1010.7
20260904002017 67 0 0.0 0.0 0.00 0.02 0.02 92 1010.5
20260904001117 67 0 0.0 0.0 0.00 0.02 0.02 92 1010.6
20260904000218 67 0 0.0 0.0 0.00 0.02 0.02 92 1010.5
20260903235317 68 0 0.0 0.0 0.00 0.02 0.02 92 1010.3
20260903234417 68 0 0.0 0.0 0.00 0.02 0.02 92 1010.3
20260903231717 69 0 0.0 0.0 0.00 0.02 0.02 90 1010.4
20260903225917 70 0 0.0 0.0 0.00 0.02 0.02 90 1010.3
20260903225017 70 0 0.0 0.0 0.00 0.02 0.02 90 1010.3
20260903224117 70 0 0.0 0.0 0.00 0.02 0.02 90 1010.3
20260903223217 70 0 0.0 0.0 0.00 0.02 0.02 90 1010.2
20260903222317 71 161 0.0 2.0 0.00 0.02 0.02 89 1010.3
20260903220517 71 0 0.0 0.0 0.00 0.02 0.02 89 1010.5
20260903215617 71 161 0.0 4.0 0.00 0.02 0.02 89 1010.7
20260903214717 71 161 0.0 1.0 0.00 0.02 0.02 89 1010.8
20260903212917 72 161 0.0 2.0 0.00 0.02 0.02 88 1010.7
20260903211117 72 161 0.0 1.0 0.00 0.02 0.02 87 1010.7
20260903210217 72 160 0.0 5.0 0.00 0.02 0.02 86 1010.7
20260903205317 72 161 0.0 5.0 0.00 0.02 0.02 86 1010.8
20260903204417 72 162 1.0 5.0 0.00 0.02 0.02 87 1010.7
20260903203517 72 162 0.0 4.0 0.00 0.02 0.02 88 1010.7
20260903202617 71 164 0.0 5.0 0.00 0.02 0.02 89 1010.8
20260903195917 70 167 0.0 4.0 0.00 0.02 0.02 89 1010.9
20260903195017 70 170 0.0 6.0 0.00 0.02 0.02 89 1011.1
20260903194117 70 171 0.0 5.0 0.00 0.02 0.02 89 1011.2
20260903193216 70 171 0.0 6.0 0.00 0.02 0.02 89 1011.1
20260903192317 70 163 0.0 2.0 0.00 0.02 0.02 90 1011.3
20260903191417 70 164 0.0 1.0 0.00 0.02 0.02 90 1011.3
20260903185617 69 164 0.0 4.0 0.00 0.02 0.02 92 1011.2
20260903184717 68 164 0.0 4.0 0.00 0.02 0.02 92 1011.2
20260903183817 68 164 0.0 1.0 0.00 0.02 0.02 93 1011.4
20260903182917 67 0 0.0 0.0 0.00 0.02 0.02 93 1011.6
20260903182017 67 0 0.0 0.0 0.00 0.02 0.02 94 1011.8
20260903181117 66 0 0.0 0.0 0.00 0.02 0.02 94 1011.7
20260903180216 66 0 0.0 0.0 0.00 0.02 0.02 94 1011.8
20260903175317 66 0 0.0 0.0 0.00 0.02 0.02 94 1011.8
20260903174416 66 164 0.0 1.0 0.00 0.02 0.02 94 1011.9
20260903173516 66 164 0.0 1.0 0.00 0.02 0.02 94 1011.9
20260903172616 65 0 0.0 0.0 0.00 0.02 0.02 94 1012.0
20260903171716 65 0 0.0 0.0 0.00 0.02 0.02 95 1012.1
20260903170816 65 0 0.0 0.0 0.00 0.02 0.02 95 1012.2
20260903165916 65 0 0.0 0.0 0.00 0.02 0.02 94 1012.2
20260903165017 64 0 0.0 0.0 0.00 0.02 0.02 95 1012.2
20260903164116 64 0 0.0 0.0 0.00 0.02 0.02 94 1012.1
20260903162316 64 0 0.0 0.0 0.00 0.02 0.02 95 1012.1
20260903161416 64 0 0.0 0.0 0.00 0.02 0.02 95 1012.3
20260903160516 63 0 0.0 0.0 0.00 0.02 0.02 95 1012.3
20260903155616 63 0 0.0 0.0 0.00 0.02 0.02 95 1012.2
20260903153816 63 0 0.0 0.0 0.00 0.02 0.02 95 1012.4
20260903152916 62 0 0.0 0.0 0.00 0.02 0.02 95 1012.5
20260903152016 62 0 0.0 0.0 0.00 0.02 0.02 95 1012.6
20260903151116 62 0 0.0 0.0 0.00 0.02 0.02 95 1012.7
20260903145316 62 0 0.0 0.0 0.00 0.02 0.02 95 1012.8
20260903144416 61 0 0.0 0.0 0.00 0.02 0.02 94 1012.9
20260903143516 61 164 0.0 1.0 0.00 0.02 0.02 94 1013.0
20260903142616 61 0 0.0 0.0 0.00 0.02 0.02 94 1012.9
20260903141716 61 164 0.0 1.0 0.00 0.02 0.02 95 1012.9
20260903134213 61 165 0.0 3.0 0.00 0.02 0.02 95 1013.0
20260903133313 61 0 0.0 0.0 0.00 0.02 0.02 94 1013.0
20260903132413 61 166 0.0 3.0 0.00 0.02 0.02 95 1012.8
20260903130612 60 161 0.0 5.0 0.00 0.02 0.02 95 1012.9
20260903125713 60 168 0.0 5.0 0.00 0.02 0.02 95 1012.9
20260903124813 60 181 0.0 3.0 0.00 0.02 0.02 95 1013.0
20260903123913 60 182 0.0 3.0 0.00 0.02 0.02 95 1013.1
20260903122113 59 0 0.0 0.0 0.00 0.02 0.02 95 1013.0
20260903121213 59 182 0.0 1.0 0.00 0.02 0.02 95 1013.2
20260903120312 59 182 0.0 3.0 0.00 0.02 0.02 95 1013.2
20260903114513 58 182 0.0 2.0 0.00 0.02 0.02 94 1013.4
20260903113613 58 182 0.0 2.0 0.00 0.02 0.02 94 1013.4
20260903112712 58 182 0.0 2.0 0.00 0.02 0.02 94 1013.5
20260903110913 58 182 0.0 1.0 0.00 0.02 0.02 94 1013.6
20260903110012 58 182 0.0 2.0 0.00 0.02 0.02 94 1013.5
20260903105112 58 182 0.0 1.0 0.00 0.02 0.02 94 1013.5
20260903104212 58 182 0.0 1.0 0.00 0.02 0.02 94 1013.4
20260903103312 58 182 0.0 2.0 0.00 0.02 0.02 94 1013.2
20260903101512 58 182 0.0 2.0 0.00 0.02 0.02 94 1013.4
20260903100612 58 182 0.0 2.0 0.00 0.02 0.02 94 1013.5
20260903095712 57 182 0.0 1.0 0.00 0.02 0.02 94 1013.4
20260903094812 57 182 0.0 2.0 0.00 0.02 0.02 94 1013.4
20260903093912 57 182 0.0 2.0 0.00 0.02 0.02 94 1013.5
20260903093012 57 182 0.0 3.0 0.00 0.02 0.02 94 1013.4
20260903092112 57 182 0.0 5.0 0.00 0.02 0.02 94 1013.5
20260903091212 57 181 0.0 4.0 0.00 0.02 0.02 94 1013.5
20260903090312 57 174 0.0 2.0 0.00 0.02 0.02 94 1013.7
20260903085412 57 174 0.0 2.0 0.00 0.02 0.02 94 1013.7
20260903083612 57 174 0.0 2.0 0.00 0.02 0.02 94 1014.1
20260903082712 57 173 0.0 2.0 0.00 0.02 0.02 94 1014.0
20260903081812 57 0 0.0 0.0 0.00 0.02 0.02 94 1014.0
20260903080912 57 173 0.0 1.0 0.00 0.02 0.02 94 1014.1
20260903074212 57 173 0.0 2.0 0.00 0.02 0.02 94 1014.2
20260903072412 57 175 0.0 5.0 0.00 0.02 0.02 94 1014.3
20260903071512 57 193 0.0 3.0 0.00 0.02 0.02 93 1014.4
20260903070612 57 193 1.0 5.0 0.00 0.02 0.02 93 1014.5
20260903065712 57 193 0.0 5.0 0.01 0.02 0.02 93 1014.3
20260903063912 58 192 0.0 3.0 0.02 0.02 0.02 93 1014.0
20260903063012 58 200 0.0 2.0 0.02 0.02 0.02 93 1014.3
20260903062112 58 200 0.0 3.0 0.02 0.02 0.02 92 1014.4
20260903061212 58 201 1.0 4.0 0.02 0.02 0.02 92 1014.6
20260903060312 58 205 0.0 4.0 0.01 0.01 0.01 92 1014.9
20260903054512 59 206 1.0 4.0 0.00 0.00 0.00 91 1015.3
20260903053612 59 195 1.0 6.0 0.00 0.00 0.00 91 1015.5
20260903052712 60 191 1.0 6.0 0.00 0.00 0.00 90 1015.5
20260903051812 60 189 1.0 7.0 0.00 0.00 0.00 90 1015.6
20260903050912 60 167 1.0 6.0 0.00 0.00 0.00 89 1015.8
20260903050012 60 167 1.0 7.0 0.00 0.00 0.00 89 1015.9
20260903045112 60 155 2.0 11.0 0.00 0.00 0.00 89 1015.6
20260903044212 60 164 2.0 6.0 0.00 0.00 0.00 89 1015.6
20260903043312 60 196 2.0 8.0 0.00 0.00 0.00 90 1015.7
20260903042412 60 181 2.0 11.0 0.00 0.00 0.00 90 1015.7
20260903041512 60 173 2.0 6.0 0.00 0.00 0.00 90 1015.9
20260903040612 60 170 1.0 7.0 0.00 0.00 0.00 90 1015.9
20260903035712 60 174 1.0 5.0 0.00 0.00 0.00 90 1016.0
20260903033912 60 197 1.0 9.0 0.00 0.00 0.00 90 1016.0
20260903033012 60 190 2.0 6.0 0.00 0.00 0.00 90 1016.1
20260903031211 60 190 1.0 6.0 0.00 0.00 0.00 91 1016.6